EA3AGY-13 Weather Reports


Display with metric or nautical units.
time (UTC)temp
F
wind
direction
speed
MPH
gust
MPH
rain 1hr
in
rain 24hr
in
rain mn
in
humidity
%
barometer
mb
20260902091505 69 315 1.0 2.0 0.00 0.00 0.00 42 1023.8
20260902081523 67 270 0.0 1.0 0.00 0.00 0.00 44 1023.3
20260902081448 67 270 0.0 1.0 0.00 0.00 0.00 44 1023.3
20260902074441 65 45 0.0 1.0 0.00 0.00 0.00 46 1023.1
20260902073438 64 0 0.0 0.0 0.00 0.00 0.00 47 1023.1
20260902072436 64 45 0.0 0.0 0.00 0.00 0.00 48 1023.1
20260902070431 62 33 0.0 1.0 0.00 0.00 0.00 49 1023.0
20260902063424 60 45 0.0 0.0 0.00 0.00 0.00 53 1022.8
20260902062422 59 45 0.0 1.0 0.00 0.00 0.00 54 1022.7
20260902061420 59 45 0.0 0.0 0.00 0.00 0.00 53 1022.8
20260902060417 58 45 0.0 1.0 0.00 0.00 0.00 53 1022.5
20260902053410 56 90 1.0 2.0 0.00 0.00 0.00 49 1022.4
20260902051408 56 45 0.0 0.0 0.00 0.00 0.00 49 1022.4
20260902050403 56 45 0.0 2.0 0.00 0.00 0.00 50 1022.2
20260902043357 56 45 0.0 0.0 0.00 0.00 0.00 50 1022.1
20260902041351 56 90 1.0 2.0 0.00 0.00 0.00 49 1022.3
20260902035346 57 78 1.0 2.0 0.00 0.00 0.00 50 1022.3
20260902033342 58 90 1.0 1.0 0.00 0.00 0.00 50 1022.2
20260902030335 58 90 1.0 1.0 0.00 0.00 0.00 50 1022.4
20260902024330 58 45 0.0 0.0 0.00 0.00 0.00 51 1022.4
20260902022325 58 90 2.0 2.0 0.00 0.00 0.00 50 1022.5
20260902021325 58 78 2.0 2.0 0.00 0.00 0.00 51 1022.3
20260902020322 58 45 0.0 0.0 0.00 0.00 0.00 53 1022.4
20260902014315 58 90 2.0 2.0 0.00 0.00 0.00 51 1022.5
20260902013313 58 45 0.0 2.0 0.00 0.00 0.00 50 1022.6
20260902012311 58 45 0.0 2.0 0.00 0.00 0.00 49 1022.8
20260902011309 58 45 0.0 2.0 0.00 0.00 0.00 49 1022.6
20260902010306 58 90 1.0 2.0 0.00 0.00 0.00 49 1022.7
20260902005306 58 45 0.0 2.0 0.00 0.00 0.00 50 1022.6
20260902003259 58 90 1.0 2.0 0.00 0.00 0.00 48 1022.8
20260902001255 58 90 1.0 1.0 0.00 0.00 0.00 47 1022.8
20260901233246 58 45 0.0 1.0 0.00 0.00 0.00 45 1022.7
20260901230238 59 90 0.0 1.0 0.00 0.00 0.00 43 1022.7
20260901225235 60 90 1.0 2.0 0.00 0.00 0.00 42 1022.6
20260901222229 62 45 0.0 1.0 0.00 0.00 0.00 44 1022.4
20260901220223 61 67 1.0 1.0 0.00 0.00 0.00 44 1022.3
20260901215222 62 90 1.0 1.0 0.00 0.00 0.00 44 1022.1
20260901213216 62 45 0.0 1.0 0.00 0.00 0.00 45 1022.0
20260901212214 62 45 1.0 1.0 0.00 0.00 0.00 45 1022.1
20260901211211 62 45 0.0 2.0 0.00 0.00 0.00 44 1022.0
20260901210209 62 90 1.0 2.0 0.00 0.00 0.00 44 1022.1
20260901205207 62 45 0.0 1.0 0.00 0.00 0.00 44 1022.0
20260901204204 63 45 0.0 1.0 0.00 0.00 0.00 45 1022.1
20260901203202 63 45 0.0 0.0 0.00 0.00 0.00 44 1022.2
20260901202200 62 45 0.0 1.0 0.00 0.00 0.00 44 1022.1
20260901200155 62 45 0.0 0.0 0.00 0.00 0.00 42 1022.0
20260901195153 62 90 1.0 2.0 0.00 0.00 0.00 42 1022.0
20260901192145 63 78 2.0 2.0 0.00 0.00 0.00 47 1021.8
20260901185140 66 45 0.0 2.0 0.00 0.00 0.00 39 1021.6
20260901184137 66 45 0.0 2.0 0.00 0.00 0.00 38 1021.4
20260901183134 67 45 0.0 2.0 0.00 0.00 0.00 37 1021.3
20260901180127 70 90 0.0 1.0 0.00 0.00 0.00 34 1021.2
20260901174122 72 90 1.0 4.0 0.00 0.00 0.00 29 1021.2
20260901173119 72 101 3.0 3.0 0.00 0.00 0.00 28 1021.2
20260901172117 72 90 2.0 3.0 0.00 0.00 0.00 27 1021.3
20260901171115 71 67 2.0 4.0 0.00 0.00 0.00 25 1021.4
20260901170113 74 90 2.0 4.0 0.00 0.00 0.00 23 1021.5
20260901165110 74 90 2.0 4.0 0.00 0.00 0.00 20 1021.4
20260901163105 77 90 2.0 4.0 0.00 0.00 0.00 15 1021.4
20260901162104 81 90 1.0 3.0 0.00 0.00 0.00 15 1021.5
20260901155057 -14 0 0.0 2.0 0.00 0.00 0.00 22 1021.3
20260901154056 -17 0 1.0 4.0 0.00 0.00 0.00 21 1021.4
20260901153051 -16 225 1.0 1.0 0.00 0.00 0.00 24 1021.4
20260901150047 79 45 0.0 3.0 0.00 0.00 0.00 24 1021.3
20260901144039 78 45 0.0 2.0 0.00 0.00 0.00 28 1021.4
20260901141032 75 90 2.0 3.0 0.00 0.00 0.00 34 1021.7
20260901135027 71 112 3.0 7.0 0.00 0.00 0.00 34 1021.9
20260901130016 74 33 1.0 3.0 0.00 0.00 0.00 35 1021.9
20260901124011 73 0 2.0 4.0 0.00 0.00 0.00 35 1022.1
20260901122008 73 67 2.0 5.0 0.00 0.00 0.00 35 1022.1
20260901120002 73 135 5.0 5.0 0.00 0.00 0.00 37 1022.1
20260901115000 73 67 1.0 5.0 0.00 0.00 0.00 36 1022.2
20260901103943 73 337 1.0 3.0 0.00 0.00 0.00 41 1021.8
20260901100936 71 213 1.0 3.0 0.00 0.00 0.00 41 1022.0